St. Joseph, KS

9:57 PM CST on December 13, 2019 (GMT -0600)
Rosecrans Memorial

Weather History for KSTJ - October, 2019

Change the Weather History Date:

Tuesday, October 29, 2019

  Actual Average Record
Temperature  
Mean Temperature 33 °F 50 °F  
Max Temperature 35 °F 62 °F 86 °F (1937)
Min Temperature 31 °F 38 °F 18 °F (1925)
Degree Days  
Heating Degree Days 32 15  
Month to date heating degree days 377 306  
Since 1 July heating degree days 382 386  
Cooling Degree Days 0 0  
Month to date cooling degree days 17 18  
Year to date cooling degree days 1466 1217  
Moisture  
Dew Point 28 °F    
Average Humidity 84    
Maximum Humidity 92    
Minimum Humidity 75    
Precipitation  
Precipitation 0.00 in 0.08 in 2.73 in (1961)
Month to date precipitation 3.26 2.66  
Year to date precipitation 36.86 32.38  
Sea Level Pressure  
Sea Level Pressure 30.28 in    
Wind  
Wind Speed 5 mph (NNE)    
Max Wind Speed 10 mph    
Max Gust Speed 14 mph    
Visibility 10 miles    
Events      
T = Trace of Precipitation, MM = Missing Value Source: NWS Daily Summary

Daily Weather History Graph

Daily Weather History Graph

Search for Another Location

Airport or City:

Astronomy

Oct. 29, 2019 Rise Set
Actual Time 7:44 AM CDT 6:21 PM CDT
Civil Twilight 7:16 AM CDT 6:49 PM CDT
Nautical Twilight 6:45 AM CDT 7:20 PM CDT
Astronomical Twilight 6:13 AM CDT 7:52 PM CDT
Moon 9:19 AM CDT (10/29) 7:46 PM CDT (10/29)
Length of Visible Light 11h 32m
Length of Day
10h 36m
Waxing Crescent, 3% of the Moon is Illuminated
Oct 29
Waxing Crescent
Nov 4
First Quarter
Nov 12
Full
Nov 19
Last Quarter
Nov 26
New

Hourly Weather History & Observations

Time (CDT) Temp. Windchill Dew Point Humidity Pressure Visibility Wind Dir Wind Speed Gust Speed Precip Events Conditions
12:09 AM 33.1 °F 25.5 °F 30.0 °F 89% 30.18 in 10.0 mi North 9.2 mph - N/A   Overcast
12:53 AM 33.1 °F 24.9 °F 30.0 °F 89% 30.20 in 10.0 mi North 10.4 mph - N/A   Overcast
1:43 AM 33.1 °F 26.1 °F 30.0 °F 89% 30.18 in 10.0 mi North 8.1 mph - N/A   Overcast
1:53 AM 33.1 °F 26.1 °F 30.0 °F 89% 30.20 in 10.0 mi North 8.1 mph - N/A   Overcast
2:13 AM 33.1 °F 27.7 °F 28.9 °F 85% 30.20 in 10.0 mi NW 5.8 mph - N/A   Overcast
2:44 AM 33.1 °F 26.9 °F 30.0 °F 89% 30.21 in 10.0 mi NNW 6.9 mph - N/A   Overcast
2:53 AM 33.1 °F 26.1 °F 30.0 °F 89% 30.24 in 10.0 mi NW 8.1 mph - N/A   Overcast
3:24 AM 32.0 °F 25.6 °F 28.9 °F 88% 30.22 in 10.0 mi NW 6.9 mph - N/A   Overcast
3:32 AM 32.0 °F 24.8 °F 28.9 °F 88% 30.23 in 10.0 mi NW 8.1 mph - N/A   Overcast
3:53 AM 32.0 °F 26.4 °F 28.9 °F 88% 30.25 in 10.0 mi NNW 5.8 mph - N/A   Overcast
4:07 AM 32.0 °F 24.8 °F 28.9 °F 88% 30.23 in 10.0 mi NNW 8.1 mph - N/A   Overcast
4:53 AM 33.1 °F 26.9 °F 28.9 °F 85% 30.24 in 10.0 mi North 6.9 mph - N/A   Overcast
5:53 AM 32.0 °F 26.4 °F 28.0 °F 85% 30.27 in 10.0 mi NNE 5.8 mph - N/A   Overcast
6:00 AM 32.0 °F 28.7 °F 28.0 °F 85% 30.25 in 10.0 mi North 3.5 mph - N/A   Overcast
6:28 AM 32.0 °F 24.8 °F 27.0 °F 82% 30.24 in 10.0 mi NNE 8.1 mph - N/A   Overcast
6:53 AM 32.0 °F 25.6 °F 27.0 °F 82% 30.27 in 10.0 mi NNE 6.9 mph - N/A   Overcast
7:53 AM 30.9 °F 24.3 °F 26.1 °F 82% 30.30 in 10.0 mi ENE 6.9 mph - N/A   Overcast
8:53 AM 32.0 °F 25.6 °F 27.0 °F 82% 30.32 in 10.0 mi NE 6.9 mph - N/A   Overcast
9:43 AM 32.0 °F 26.4 °F 26.1 °F 79% 30.32 in 10.0 mi NNE 5.8 mph - N/A   Overcast
9:53 AM 32.0 °F - 26.1 °F 79% 30.34 in 10.0 mi Calm Calm - N/A   Overcast
10:18 AM 32.0 °F 26.4 °F 26.1 °F 79% 30.32 in 10.0 mi ENE 5.8 mph - N/A   Overcast
10:53 AM 32.0 °F 28.7 °F 27.0 °F 82% 30.34 in 10.0 mi East 3.5 mph - N/A   Overcast
11:53 AM 33.1 °F - 27.0 °F 78% 30.34 in 10.0 mi Calm Calm - N/A   Overcast
12:53 PM 33.1 °F 26.9 °F 27.0 °F 78% 30.32 in 10.0 mi NNE 6.9 mph - N/A   Overcast
1:16 PM 34.0 °F 28.8 °F 28.0 °F 79% 30.30 in 10.0 mi ENE 5.8 mph - N/A   Overcast
1:29 PM 33.1 °F 27.7 °F 28.0 °F 82% 30.29 in 10.0 mi ENE 5.8 mph - N/A   Overcast
1:53 PM 34.0 °F 28.0 °F 27.0 °F 75% 30.32 in 10.0 mi ENE 6.9 mph - N/A   Overcast
2:53 PM 34.0 °F 29.8 °F 28.0 °F 79% 30.31 in 10.0 mi ENE 4.6 mph - N/A   Overcast
3:53 PM 34.0 °F 28.8 °F 28.0 °F 79% 30.30 in 10.0 mi NE 5.8 mph - N/A   Overcast
4:53 PM 35.1 °F 27.9 °F 28.0 °F 76% 30.31 in 10.0 mi NE 9.2 mph - N/A   Overcast
5:53 PM 34.0 °F 31.0 °F 28.0 °F 79% 30.31 in 10.0 mi NE 3.5 mph - N/A   Mostly Cloudy
6:53 PM 33.1 °F 28.7 °F 28.9 °F 85% 30.32 in 10.0 mi NNE 4.6 mph - N/A   Mostly Cloudy
7:53 PM 33.1 °F 27.7 °F 28.9 °F 85% 30.31 in 10.0 mi NNE 5.8 mph - N/A   Partly Cloudy
8:53 PM 32.0 °F 28.7 °F 28.9 °F 88% 30.33 in 10.0 mi NNW 3.5 mph - N/A   Scattered Clouds
9:53 PM 33.1 °F - 30.9 °F 92% 30.33 in 10.0 mi Calm Calm - N/A   Overcast
10:53 PM 34.0 °F 31.0 °F 30.9 °F 89% 30.35 in 10.0 mi North 3.5 mph - N/A   Overcast
11:53 PM 34.0 °F 29.8 °F 30.9 °F 89% 30.33 in 10.0 mi North 4.6 mph - N/A   Overcast